Theta_e
343 343 343 343 342 341 339 332 330 330 333 335 336 333 333 333 333 332 333 335 335 336 336 336 336 339 339 340 339 337 335 334 338 338 332 327 326 337 340 337 336 330 328
343 343 343 343 340 337 337 329 328 331 334 335 333 332 334 331 333 333 333 334 335 336 336 336 335 338 339 338 338 340 339 340 342 343 339 332 329 341 342 338 333 329 329
344 342 342 341 338 335 332 328 330 333 334 332 333 333 330 330 331 331 332 332 334 336 336 335 334 334 337 339 339 338 340 343 344 344 341 337 330 333 341 336 331 332 327
343 342 342 339 337 335 331 328 331 334 333 332 332 331 329 329 330 331 330 331 334 336 336 334 333 333 335 336 337 341 341 344 344 344 344 341 332 327 330 335 334 336 328
342 342 342 339 338 336 333 331 332 334 333 332 329 330 331 330 330 329 329 330 334 337 337 335 335 331 334 335 335 338 341 343 345 343 344 344 332 329 333 331 338 332 332
344 342 342 340 339 339 337 334 333 334 334 332 331 331 331 330 331 329 332 332 336 339 338 339 333 329 335 335 337 338 341 344 343 343 343 342 333 328 335 334 337 330 335
347 346 345 343 340 340 339 336 334 334 335 335 333 332 331 331 332 329 332 335 338 338 339 340 339 332 336 337 337 338 344 345 347 344 344 344 332 330 334 330 333 330 333
347 346 345 345 344 342 339 338 335 334 335 336 334 333 331 332 334 329 335 338 338 340 340 338 338 337 336 335 343 345 344 345 344 345 345 345 331 329 328 325 332 331 332
345 346 346 343 342 341 339 339 338 337 336 335 334 331 331 335 333 333 337 337 338 340 339 336 337 344 340 343 345 346 346 345 343 333 336 343 335 329 325 334 327 334 327
349 345 345 342 340 339 338 337 337 336 335 334 333 330 332 339 341 346 345 343 340 340 336 340 344 346 346 344 344 346 345 344 344 342 343 342 342 332 327 325 330 336 331
349 345 345 343 339 338 336 335 334 333 333 331 331 331 339 342 347 350 348 346 341 339 339 339 346 347 346 345 345 346 344 342 343 340 347 344 340 341 333 329 327 334 334
351 350 345 343 339 336 335 335 335 335 334 332 332 338 348 344 346 347 346 343 343 342 345 345 346 345 344 343 343 344 342 342 342 343 345 343 342 339 341 333 330 327 334
350 352 351 347 346 343 338 338 337 336 337 338 337 345 347 347 347 339 338 338 346 346 345 345 345 345 345 341 341 343 339 340 338 340 340 340 340 339 339 340 333 329 327
349 351 350 347 348 352 350 347 342 346 347 347 347 344 347 349 347 345 339 343 347 345 345 345 344 345 342 341 339 339 337 335 338 337 336 337 338 336 338 340 337 329 332
350 352 350 347 345 351 349 345 346 349 346 348 347 349 346 345 347 344 343 345 346 347 342 343 344 343 340 341 341 339 336 339 339 336 337 337 338 336 338 339 341 339 331
352 351 350 349 347 349 349 347 347 350 350 350 350 350 348 346 344 347 347 347 345 344 346 343 343 342 341 340 342 338 337 338 336 338 336 338 338 338 338 338 339 340 339
352 350 352 349 349 345 349 349 349 349 347 346 348 348 349 349 347 343 344 345 345 346 345 342 342 344 342 338 337 336 337 337 337 334 337 337 339 337 339 338 339 339 339
348 352 350 350 350 348 347 350 348 348 345 344 346 347 350 349 348 345 344 345 347 347 347 344 341 343 340 338 335 337 336 337 335 337 336 335 337 336 336 338 338 338 338
349 349 350 351 352 351 348 346 347 349 347 347 345 348 350 349 348 345 346 346 349 346 348 344 343 345 340 330 335 337 336 336 337 335 336 335 339 339 338 341 340 338 338
349 349 350 351 350 352 351 345 347 346 346 345 347 348 349 348 348 342 348 345 347 348 343 343 341 337 333 337 337 334 335 337 338 334 334 338 336 338 339 342 338 342 336
349 350 349 350 350 353 352 352 349 347 349 350 347 347 347 349 347 348 346 346 345 347 343 345 339 330 337 336 336 336 336 338 335 332 331 331 331 331 334 336 339 340 343
350 349 350 350 349 354 354 352 351 348 350 348 348 345 347 346 348 344 346 343 345 345 345 342 335 325 337 337 336 333 338 339 336 334 334 329 329 331 331 331 329 330 337
348 350 350 350 351 352 354 354 354 350 349 349 348 349 353 350 349 344 347 345 344 346 345 339 335 328 338 337 336 336 340 340 339 337 335 331 330 328 326 324 328 327 326
348 348 349 349 350 351 352 353 353 348 346 350 352 350 351 348 349 347 344 345 346 346 343 337 333 322 335 337 337 336 331 337 339 339 337 333 331 330 329 327 326 325 326
348 348 349 349 350 351 351 351 351 349 347 351 353 353 348 348 351 347 347 345 343 345 336 324 325 319 334 337 337 337 335 331 330 334 337 334 332 331 330 330 330 328 326
348 349 349 349 350 351 352 352 350 351 348 350 351 347 350 350 349 344 349 347 341 339 328 327 327 319 326 336 335 335 335 334 333 335 334 332 332 331 331 331 331 331 329
Wind_Speed
23 24 27 27 25 25 27 29 30 27 25 24 22 22 20 20 20 18 17 15 16 16 16 15 16 15 14 13 13 15 13 13 16 17 16 11 11 15 16 16 10 9 12
26 24 28 27 28 25 27 29 28 25 24 21 20 19 20 19 18 17 16 15 14 15 14 14 15 14 14 13 13 13 14 15 12 12 17 14 13 14 15 11 9 10 12
25 28 26 26 27 26 26 27 26 24 22 21 19 19 18 17 16 16 14 13 13 13 13 13 13 12 12 11 13 13 12 11 12 11 13 13 10 10 13 12 9 12 12
27 27 26 25 25 24 25 26 25 23 22 20 19 18 17 16 16 15 13 12 12 11 12 12 12 11 11 10 11 13 11 9 10 11 10 8 9 11 10 11 11 13 15
24 24 26 25 24 24 24 25 24 22 21 19 17 15 14 14 14 13 12 11 11 11 10 11 11 10 11 11 11 10 9 9 8 11 8 6 9 9 10 10 13 13 14
20 22 24 24 23 23 23 23 23 21 18 16 13 10 11 12 11 11 12 11 10 10 11 11 12 11 11 13 12 9 8 5 7 8 8 4 8 9 11 12 11 10 12
19 19 22 22 23 23 22 22 21 19 16 13 11 8 9 9 8 9 10 9 9 10 11 11 12 13 13 14 13 10 5 6 4 10 8 5 6 8 8 9 9 9 10
18 21 22 21 23 23 22 20 19 17 14 12 10 7 7 7 6 7 10 9 9 10 10 11 13 16 17 16 15 16 12 9 11 10 9 4 6 6 6 7 8 8 9
19 22 21 23 23 23 21 18 17 16 14 12 10 7 6 5 7 8 8 11 10 11 11 11 14 18 21 22 18 17 16 10 15 11 11 5 4 6 5 6 7 7 8
13 19 22 23 23 23 21 18 16 15 13 12 9 8 5 6 7 9 10 11 10 9 11 13 12 13 16 19 17 15 16 13 13 12 9 8 4 4 6 5 5 7 7
13 16 20 23 23 22 21 18 14 13 12 12 11 8 5 5 5 6 4 7 4 9 10 9 9 11 12 12 13 12 14 13 10 9 9 11 5 4 6 6 3 6 5
18 15 18 19 22 22 19 16 13 13 12 12 10 9 3 5 2 1 7 5 5 9 7 5 8 8 10 8 8 8 6 7 7 5 6 6 5 2 1 6 6 6 8
23 21 19 17 14 16 17 13 12 13 11 11 12 11 2 2 1 3 5 5 4 10 6 6 7 8 8 10 5 6 6 1 11 5 5 6 6 4 1 6 8 5 7
26 26 23 17 19 18 16 8 13 11 8 6 4 5 5 3 2 4 2 3 7 6 6 3 7 7 10 8 9 9 16 7 3 6 5 4 6 4 5 5 8 9 10
30 28 27 24 22 20 19 12 12 10 6 5 6 4 2 8 3 4 1 0 4 3 5 4 2 4 6 4 7 6 11 6 5 7 4 1 3 4 4 6 9 7 8
33 29 27 24 18 23 21 15 13 12 13 10 11 7 6 3 7 4 4 3 3 4 4 7 10 7 3 4 1 7 8 4 11 6 3 1 2 4 2 3 6 6 9
35 28 25 24 22 24 24 21 20 18 17 15 10 4 8 7 8 13 8 4 4 6 4 7 7 6 1 1 4 7 3 9 8 9 10 3 4 1 3 1 3 5 5
31 30 26 24 23 22 25 26 24 20 17 16 13 9 8 10 12 9 7 6 7 10 6 8 9 7 2 2 1 2 6 3 6 5 4 1 2 1 2 1 3 1 2
34 32 29 25 20 19 18 26 25 23 19 15 15 13 14 16 12 10 8 7 3 5 9 9 7 10 8 8 4 4 2 5 5 5 5 5 5 3 2 2 2 0 4
33 33 29 25 23 22 17 18 20 21 21 15 17 20 16 13 14 10 8 9 5 7 10 8 5 11 2 2 3 3 4 4 3 4 5 12 9 6 3 3 1 3 5
34 33 35 33 26 24 23 19 18 22 17 16 20 18 18 15 15 12 12 11 10 6 5 7 7 7 5 3 3 1 7 3 6 7 4 7 4 4 6 3 2 0 2
38 39 37 35 33 27 25 24 21 21 19 18 14 16 16 16 12 7 8 8 9 8 8 9 6 4 4 5 3 3 6 8 8 6 2 6 3 2 2 1 2 3 5
43 42 41 38 34 35 29 26 22 18 21 20 20 20 21 18 15 10 11 10 8 10 11 8 7 7 8 7 3 3 5 4 12 7 6 4 4 6 9 3 2 4 5
45 42 40 38 36 35 37 32 29 24 25 24 18 21 19 15 15 13 15 12 12 14 13 9 7 4 11 7 5 1 3 4 5 9 10 6 2 2 7 7 7 6 5
48 45 43 40 37 35 35 37 34 26 25 19 18 18 17 19 16 13 15 13 15 11 13 11 6 5 15 11 9 9 2 3 5 5 15 12 10 4 4 7 7 6 4
50 48 46 43 40 37 32 33 33 27 23 26 26 25 22 25 20 14 16 15 14 14 13 11 8 10 14 17 13 11 10 5 8 4 8 5 4 8 6 6 11 8 8
Wind_Direction
146 141 141 138 136 133 132 133 136 131 125 118 114 110 109 104 102 102 97 86 79 75 71 68 71 78 84 93 99 98 87 102 97 85 80 80 93 113 110 105 90 91 112
136 139 136 137 135 133 134 137 136 132 126 121 115 113 108 106 105 100 89 79 76 75 67 66 65 71 83 87 87 100 93 87 96 93 71 70 94 113 120 112 116 103 110
138 140 141 137 136 135 137 140 137 133 130 123 118 110 108 106 103 92 82 77 75 71 65 60 60 65 70 75 84 101 103 92 83 87 72 70 99 110 123 127 115 117 110
141 142 143 141 141 139 139 142 141 138 133 126 118 109 105 101 96 88 79 76 76 66 62 57 57 54 62 64 76 98 117 100 82 99 95 84 85 104 123 126 119 120 113
142 147 147 145 145 145 144 147 147 146 141 134 122 109 102 97 95 84 70 73 75 63 55 56 59 59 54 56 66 94 118 121 101 90 102 133 65 106 119 116 125 117 120
139 146 149 153 153 151 151 152 155 154 148 145 134 117 101 93 92 80 65 70 66 56 54 50 58 65 59 57 61 74 104 118 90 96 104 100 64 97 123 119 122 112 125
154 156 154 160 159 159 157 157 160 159 156 155 149 121 100 90 91 72 56 61 57 54 49 49 54 63 63 58 61 55 67 72 56 105 129 102 73 86 127 122 127 116 128
160 158 156 158 163 165 161 160 163 166 167 166 157 137 117 94 91 66 51 56 48 46 45 52 56 64 63 67 70 57 48 26 23 62 113 126 66 87 123 136 136 129 136
157 159 158 158 159 162 163 162 163 169 172 170 168 155 131 88 72 62 59 45 31 36 43 57 71 69 70 72 63 51 43 9 25 22 7 71 62 85 112 134 141 145 142
154 164 163 162 162 161 163 164 166 169 172 176 172 154 116 88 71 38 57 31 29 35 62 81 82 70 69 64 53 46 49 22 36 62 60 70 70 99 102 125 133 153 145
153 161 163 165 165 164 163 162 164 170 172 169 159 142 133 93 73 43 14 20 20 73 84 97 84 58 55 46 44 32 35 24 6 23 23 49 71 102 89 94 134 157 157
166 161 152 163 168 166 168 164 165 169 162 156 150 130 96 85 138 126 8 326 66 81 86 81 69 63 30 21 32 42 22 41 353 22 18 32 43 89 44 151 142 157 179
175 169 171 158 164 169 177 180 181 168 155 159 155 121 92 216 109 283 298 329 70 47 73 45 54 21 24 19 14 339 352 101 28 10 342 360 8 3 206 190 178 172 192
178 169 171 170 170 177 179 190 159 138 147 135 130 158 192 230 265 314 51 115 67 52 35 35 32 27 347 357 358 354 357 331 309 340 344 329 351 351 230 196 163 151 186
180 184 183 184 189 185 187 180 167 161 156 204 185 206 346 218 255 328 241 154 46 2 31 360 35 323 345 23 352 351 5 42 4 335 262 318 341 15 212 184 192 204 192
187 186 190 194 192 189 186 183 183 205 205 203 221 213 219 256 270 257 252 212 204 313 289 307 303 305 282 21 179 3 9 39 333 325 275 151 349 30 177 214 188 187 203
189 192 195 192 196 194 186 194 191 184 201 194 192 231 223 251 278 256 263 232 205 223 300 311 294 320 240 18 356 345 352 343 10 58 98 65 90 23 83 141 205 198 199
189 193 191 196 203 197 204 197 195 190 189 210 210 226 242 266 275 278 246 245 286 223 266 292 298 305 280 313 122 343 351 16 9 35 52 81 66 86 359 51 57 22 203
187 197 198 205 211 213 216 209 204 197 192 195 214 216 222 248 249 268 238 254 257 262 265 293 312 290 325 303 187 71 105 342 75 41 106 78 101 81 160 130 100 184 214
193 197 201 203 214 219 220 209 211 203 197 196 224 226 225 248 242 257 233 250 279 279 283 269 303 314 138 106 197 200 223 10 117 98 92 105 82 83 107 155 243 241 188
202 201 207 205 211 217 218 215 206 192 200 213 229 230 240 244 257 286 270 237 239 256 312 272 314 323 136 51 327 171 211 182 117 140 134 119 155 231 246 238 224 276 203
207 212 211 214 212 214 219 220 217 209 206 212 226 207 223 235 250 248 224 248 218 234 243 259 309 186 147 174 300 227 186 190 157 183 240 163 196 236 303 258 358 261 215
206 212 216 216 214 212 215 216 216 220 218 223 220 225 228 228 236 234 227 228 214 218 237 265 281 183 159 164 40 123 155 184 187 181 214 204 52 63 37 342 7 45 13
208 214 218 220 218 215 216 221 222 222 208 213 223 227 229 232 243 248 237 228 238 230 241 251 287 187 189 170 165 103 32 176 182 178 203 221 234 38 25 19 360 337 311
206 211 218 221 218 220 216 222 224 223 222 217 213 226 228 231 227 245 231 231 221 223 238 248 214 201 177 171 176 178 169 164 153 172 195 208 216 227 316 336 347 357 340
206 209 213 216 219 222 221 219 219 211 211 213 215 218 224 224 219 209 208 222 223 227 237 235 239 213 196 190 185 187 188 204 206 188 159 179 202 212 258 305 296 308 332